Temperature
16 16 15 15 15 15 14 14 14 13 13 13 13 13 13 13 13 13 12 12 12 12 12 12 12 13 13 13 13 13 13 13 13 13 13 12 12 12 12 13 13 13 13
18 16 15 15 15 15 14 14 14 13 13 13 13 12 12 12 12 12 12 12 12 12 12 12 12 12 13 13 12 12 12 13 13 13 12 12 12 12 12 12 12 12 12
17 16 15 15 15 15 15 14 14 13 13 12 12 12 12 12 12 12 12 12 12 12 12 12 12 12 12 12 12 12 12 12 12 12 12 12 12 11 11 11 12 12 12
17 17 16 15 15 15 15 14 14 13 13 12 12 12 12 12 11 11 11 11 11 12 12 12 12 12 12 12 12 12 12 12 12 12 12 12 11 11 11 11 11 11 11
17 17 16 15 15 15 15 14 14 13 13 12 12 12 12 11 11 11 11 11 12 12 12 12 12 12 12 12 12 12 12 12 12 12 12 11 11 11 11 11 11 11 11
17 16 16 15 15 15 14 14 14 13 13 12 12 12 11 11 11 11 12 12 12 12 12 12 12 12 12 12 12 12 12 12 12 12 11 11 11 10 10 10 10 10 10
17 16 16 15 15 14 14 14 14 14 13 12 12 12 11 11 11 12 12 12 12 12 12 12 12 12 12 12 12 12 12 12 12 11 11 11 10 10 10 10 10 10 10
18 17 16 15 15 14 14 14 14 14 13 13 12 12 12 12 12 12 12 12 12 12 12 12 12 12 12 12 12 12 11 11 11 11 11 11 10 10 10 10 10 10 9
17 16 16 15 15 14 14 14 14 14 13 13 12 12 12 12 12 12 12 12 12 12 12 12 12 12 12 12 12 11 11 11 11 11 11 10 10 10 10 9 9 9 9
17 16 16 15 15 15 14 14 14 14 13 13 12 12 12 12 12 12 12 12 12 12 12 12 12 12 12 11 11 11 11 11 11 11 11 10 10 10 9 9 9 9 9
16 16 16 15 15 15 14 14 14 13 13 13 12 12 12 12 12 12 12 12 12 12 12 12 12 11 11 11 11 11 11 11 11 11 10 10 10 10 9 10 10 9 9
16 16 16 16 15 15 14 14 14 13 13 13 12 12 12 12 12 12 12 12 12 12 11 11 11 11 11 11 11 11 11 11 11 11 10 10 10 10 10 10 10 10 10
18 17 16 16 15 15 14 14 14 13 13 13 12 12 12 12 12 11 11 11 11 11 11 11 11 11 11 11 11 11 11 11 11 10 10 10 10 10 10 10 10 10 10
18 17 17 16 16 15 15 14 14 13 13 13 13 12 12 12 12 11 11 11 11 11 11 11 11 11 11 10 10 10 10 10 11 11 10 10 10 10 10 10 10 10 10
18 17 17 16 16 15 15 14 14 14 13 13 13 12 12 12 12 11 11 11 11 11 11 11 11 10 10 10 10 10 10 10 10 10 10 10 10 10 10 10 10 10 10
18 18 17 17 16 16 15 15 14 14 14 13 13 13 12 12 12 11 11 11 11 11 11 11 10 10 10 10 10 10 10 10 10 10 10 10 10 10 10 10 10 10 10
19 18 17 17 16 16 16 15 15 14 14 13 13 13 12 12 12 11 11 11 11 11 11 10 10 10 10 10 10 10 10 10 10 10 10 10 10 10 10 10 10 10 9
19 18 18 17 16 16 16 15 15 14 14 14 13 13 12 12 12 11 11 11 11 11 10 10 10 10 10 10 10 10 10 10 10 10 10 10 10 10 10 10 10 9 9
19 19 18 17 17 16 16 15 15 14 14 14 13 13 13 12 12 12 11 11 11 11 10 10 10 10 10 10 10 10 10 10 10 10 10 10 10 10 10 10 9 9 9
19 19 18 18 17 17 16 15 14 14 14 13 13 13 13 12 12 12 11 11 11 10 10 10 10 10 10 10 10 10 10 10 10 10 10 10 10 10 10 9 9 9 9
19 19 18 18 17 16 15 15 14 14 14 14 13 13 13 13 12 12 12 11 11 11 10 10 10 10 10 9 9 9 9 10 10 10 10 10 10 10 9 9 9 9 9
20 19 19 18 18 17 16 16 16 15 15 14 14 13 13 13 12 12 12 11 11 11 10 10 10 10 9 9 9 9 9 9 10 10 10 10 9 9 9 9 9 9 8
20 20 19 19 18 17 17 16 15 14 13 13 13 13 13 13 12 12 12 12 11 11 11 10 10 10 10 9 9 9 9 9 9 9 9 9 9 9 9 9 8 8 8
20 20 19 19 18 18 17 16 15 15 14 15 15 14 13 13 13 12 12 12 11 11 11 11 10 10 10 9 9 9 9 9 8 8 9 9 9 9 8 8 8 8 8
21 20 20 19 18 18 17 16 16 16 16 15 14 14 13 13 13 12 12 12 11 11 11 10 10 10 10 9 9 9 9 8 8 8 8 8 8 8 8 8 8 8 7
20 20 19 19 18 18 17 17 16 16 16 15 14 14 14 13 13 13 12 12 11 11 11 10 10 10 10 9 9 9 9 8 8 8 8 8 8 8 8 8 8 7 7
Wind_Speed
8 14 20 19 19 18 17 15 15 15 15 15 14 14 14 13 13 13 14 14 14 14 15 15 15 15 15 15 15 16 16 16 16 16 16 16 16 16 16 15 14 13 15
13 18 21 21 19 18 17 16 16 15 15 15 14 14 13 13 13 13 13 13 13 14 14 15 15 15 14 14 14 14 14 14 15 15 14 14 14 14 14 14 13 13 14
15 19 21 21 20 19 18 17 17 16 16 15 14 13 13 13 13 13 12 12 12 13 13 13 13 13 13 13 13 13 13 14 14 14 13 13 12 13 13 13 12 13 13
18 19 20 22 21 20 19 18 17 16 16 15 14 14 13 13 13 12 12 12 12 12 12 12 12 12 12 12 12 12 13 13 13 12 12 11 10 11 11 11 12 12 11
16 18 21 22 21 20 19 18 18 17 16 15 14 14 13 13 13 12 12 12 11 11 11 11 11 11 10 10 11 11 12 12 12 11 11 10 9 10 10 10 10 11 11
13 17 21 23 22 21 20 19 18 17 16 15 14 13 13 13 12 12 12 11 11 10 10 10 10 9 9 9 9 10 11 11 11 10 9 8 7 8 9 9 9 10 10
13 16 21 23 22 21 20 19 18 17 16 15 14 14 13 13 12 12 11 11 10 10 10 9 9 8 8 8 8 9 9 10 10 8 7 6 5 7 8 8 8 8 9
16 16 20 23 22 22 21 20 19 18 17 16 15 14 13 13 12 12 11 10 9 9 9 8 8 7 7 7 7 8 8 8 7 6 5 4 5 6 7 7 7 7 8
15 15 15 19 21 21 21 20 19 18 17 16 15 14 13 13 12 11 11 10 9 9 8 7 7 6 5 5 5 6 6 7 6 4 4 3 4 5 6 6 6 6 7
12 12 12 15 17 18 19 20 19 18 18 17 16 15 14 13 12 11 11 10 9 8 7 6 5 5 3 3 3 4 5 6 5 4 2 2 4 4 5 5 5 5 6
13 11 11 12 14 16 17 19 19 18 18 17 16 16 14 12 12 11 11 10 9 8 7 6 5 3 2 1 1 2 3 4 4 2 1 2 3 2 3 3 4 4 5
17 15 12 13 13 15 15 16 16 16 16 16 15 15 14 12 12 11 12 11 10 8 7 6 4 3 1 1 2 1 1 2 3 1 1 2 2 1 2 2 2 3 3
19 17 16 14 14 14 11 13 12 13 14 15 16 16 14 12 11 11 10 10 9 8 6 5 3 2 2 2 2 1 2 3 3 2 2 2 2 1 0 1 1 1 2
16 18 17 16 14 14 13 12 12 11 11 12 15 17 14 9 8 9 9 9 9 8 6 5 4 4 4 4 4 3 4 3 4 3 3 3 3 2 1 1 1 1 2
17 18 18 17 16 15 12 11 12 11 12 14 15 17 16 10 7 8 8 10 10 9 7 6 5 4 3 4 4 4 4 4 5 5 4 4 4 4 3 3 3 3 3
18 18 18 19 18 15 14 11 11 13 14 15 15 17 18 15 11 9 8 8 9 11 10 8 6 4 3 3 2 3 4 5 5 6 6 5 6 5 5 5 5 5 5
18 18 19 20 18 18 16 14 12 14 15 13 15 18 19 18 15 11 7 7 10 12 11 7 5 4 3 2 2 3 3 5 6 7 7 7 7 7 7 7 7 7 7
17 18 20 18 19 19 16 14 12 13 14 13 15 17 19 20 18 13 8 8 12 11 8 5 4 3 3 3 3 3 3 3 6 7 8 8 9 8 8 9 9 9 9
19 19 19 18 20 19 17 13 11 12 12 13 15 15 18 20 20 14 9 9 12 8 6 5 4 4 3 3 3 4 4 4 5 6 7 9 10 10 10 10 11 11 11
17 18 20 19 19 18 14 10 9 9 10 11 12 14 17 18 19 15 10 10 10 6 6 5 5 4 3 4 3 3 4 5 4 5 6 8 10 11 11 11 11 11 12
15 17 19 19 18 15 13 12 12 12 10 10 10 15 17 17 18 14 8 8 8 8 8 7 5 5 3 3 1 2 4 4 5 5 5 5 6 9 11 11 11 11 11
17 18 19 20 19 18 16 14 11 10 8 9 8 11 16 17 17 15 11 10 9 8 8 8 6 4 3 4 4 1 3 4 3 4 4 5 6 6 7 10 11 12 12
16 18 18 20 19 19 16 10 7 5 4 6 9 10 12 16 16 14 13 10 10 10 9 10 8 8 6 5 4 4 3 5 3 3 4 5 5 4 6 7 10 12 13
16 16 17 18 19 18 16 14 14 12 12 12 10 10 10 13 14 15 14 12 11 10 10 10 9 7 7 5 4 5 4 4 3 3 3 3 4 6 6 6 7 11 12
14 14 15 16 17 17 17 18 17 15 12 8 7 10 11 11 12 13 14 12 11 10 11 10 9 9 7 7 6 4 4 3 4 4 5 4 3 5 6 6 7 8 11
10 12 13 15 16 17 18 18 19 17 14 11 11 12 11 9 10 12 12 12 12 10 11 11 10 10 9 8 7 5 5 4 5 5 7 6 6 5 5 5 6 7 9
Wind_Direction
170 173 163 158 152 147 141 136 133 130 126 123 118 113 109 106 104 99 95 91 88 86 85 83 82 80 80 80 80 78 74 71 69 68 66 66 67 66 64 62 58 52 56
158 167 162 158 153 148 144 139 137 133 130 125 120 118 114 111 109 106 101 96 92 90 88 87 85 84 83 83 82 79 75 75 74 71 65 60 63 65 63 59 57 56 54
153 161 159 157 153 150 146 143 141 137 132 128 125 124 120 116 112 108 106 103 98 95 92 90 88 87 86 84 80 76 75 77 77 71 61 47 51 63 62 59 56 55 54
154 158 158 158 155 151 148 146 145 141 137 133 131 129 126 121 116 113 110 108 104 100 96 92 91 91 89 83 77 75 76 78 77 71 57 46 44 61 61 58 56 54 53
153 156 160 159 157 155 152 150 148 145 143 140 137 134 131 127 122 118 115 113 110 106 102 98 96 93 89 84 77 75 76 78 77 70 59 47 39 58 61 58 53 50 50
153 156 162 162 160 158 156 154 152 151 149 146 144 140 136 131 127 124 121 118 115 112 108 104 99 95 90 84 79 75 77 79 78 71 62 49 39 56 62 59 56 52 51
154 158 165 164 163 161 160 158 157 155 152 151 150 147 143 138 134 130 128 125 122 117 114 109 103 99 93 87 81 78 80 80 79 72 62 50 49 60 64 59 55 54 51
157 161 167 168 166 165 164 163 161 160 157 157 156 153 149 145 142 139 138 134 131 125 120 115 109 102 96 89 81 76 75 76 76 74 60 51 67 66 65 61 57 54 51
158 161 168 169 168 168 168 167 166 165 163 162 162 159 155 152 150 147 146 143 138 132 128 123 118 112 101 88 75 67 70 75 80 83 60 55 71 66 64 60 54 52 50
160 165 167 168 167 168 169 170 169 168 167 167 166 163 161 160 156 155 154 152 148 144 142 137 130 126 110 84 60 59 66 72 86 84 65 78 80 69 63 62 53 53 49
168 172 170 167 168 168 169 173 172 172 171 169 168 167 165 162 160 162 163 163 161 160 159 156 153 151 143 32 14 45 63 79 101 104 100 103 88 77 66 65 57 51 43
178 180 177 174 171 169 173 174 173 174 174 172 172 170 167 167 170 172 175 177 175 176 178 179 182 186 218 295 323 17 104 115 124 161 202 142 118 99 75 63 60 46 36
180 180 181 179 176 174 174 172 175 175 175 176 177 177 175 176 180 182 182 187 187 188 192 200 209 218 230 243 245 203 182 167 168 197 219 198 183 190 139 55 46 25 16
179 185 183 181 178 179 176 177 178 178 181 184 187 185 180 179 183 186 188 192 192 193 196 207 214 226 237 238 219 197 192 184 187 201 218 213 216 237 250 277 285 296 310
183 186 184 183 182 181 178 181 183 185 188 191 191 191 186 183 185 188 195 196 198 198 201 208 214 220 222 223 212 194 195 203 200 203 214 220 227 241 252 262 270 277 284
190 188 184 185 184 182 183 185 186 190 192 193 196 195 192 189 187 188 191 193 199 202 205 204 204 201 207 202 205 201 203 210 210 211 214 222 230 237 248 260 268 274 280
193 189 186 187 184 184 186 187 188 190 191 195 199 198 194 191 189 188 187 191 200 202 200 198 199 194 198 200 221 220 210 214 214 217 219 221 228 235 244 254 263 269 277
193 190 189 188 187 188 188 188 188 190 191 196 198 197 195 193 190 186 187 194 196 192 187 181 187 189 205 209 225 240 227 220 222 224 224 224 225 229 239 249 257 263 271
196 192 190 189 188 190 189 188 187 188 192 195 196 196 196 194 191 187 191 195 190 185 185 189 190 186 202 217 226 240 246 238 230 227 224 227 226 227 232 242 251 257 264
198 194 192 190 189 187 186 183 183 188 193 194 196 198 195 195 193 190 192 192 186 183 192 192 194 195 199 205 227 254 258 253 242 233 231 230 229 230 232 236 244 251 259
195 193 192 190 188 183 185 187 189 196 196 196 199 198 197 196 194 192 192 190 187 194 197 192 186 197 208 176 173 294 293 265 251 244 233 230 230 232 233 235 238 242 250
194 193 192 192 188 187 191 192 192 189 192 196 196 198 199 197 195 196 193 194 193 196 198 196 187 186 200 176 170 198 298 312 283 249 235 232 238 234 236 238 237 240 244
197 194 194 193 191 191 187 179 166 160 167 186 199 202 202 199 198 198 197 195 195 195 203 203 195 190 205 208 189 180 205 242 283 290 251 240 239 237 242 241 239 242 245
202 196 194 192 191 190 183 182 180 189 199 203 199 200 200 200 200 200 198 197 198 200 203 205 200 198 193 211 213 216 214 194 214 284 289 268 251 244 244 245 242 245 248
198 192 192 189 191 188 187 189 190 199 204 196 189 194 201 204 203 202 200 199 202 203 205 204 200 201 201 205 203 198 215 224 216 227 266 277 278 255 245 242 241 246 248
193 189 187 187 191 189 190 192 194 198 195 188 194 199 204 206 207 206 202 203 205 205 205 206 204 203 207 208 209 200 192 200 212 215 242 257 263 263 250 244 241 241 247
Height
1517 1520 1522 1524 1526 1527 1528 1530 1530 1531 1531 1532 1532 1533 1533 1533 1533 1533 1533 1534 1534 1533 1533 1533 1533 1533 1533 1533 1533 1533 1533 1532 1532 1532 1532 1532 1532 1531 1531 1531 1530 1530 1530
1515 1518 1521 1523 1525 1527 1528 1529 1530 1531 1532 1532 1532 1533 1533 1533 1533 1534 1534 1534 1534 1534 1534 1534 1534 1534 1534 1534 1534 1534 1534 1533 1533 1533 1533 1533 1533 1532 1532 1531 1531 1531 1530
1515 1517 1520 1523 1524 1526 1527 1528 1529 1530 1531 1532 1532 1533 1533 1533 1534 1534 1534 1534 1535 1535 1535 1535 1534 1535 1535 1535 1535 1535 1534 1534 1534 1534 1534 1534 1533 1533 1533 1532 1532 1531 1530
1515 1517 1519 1522 1524 1525 1527 1528 1529 1530 1531 1531 1532 1533 1533 1533 1534 1534 1534 1534 1535 1535 1535 1535 1535 1535 1535 1535 1535 1535 1535 1535 1535 1535 1535 1534 1534 1534 1533 1533 1532 1532 1531
1514 1516 1519 1521 1523 1525 1526 1528 1529 1530 1531 1531 1532 1533 1533 1533 1534 1534 1534 1535 1535 1535 1535 1535 1536 1536 1536 1536 1536 1536 1536 1536 1535 1535 1535 1535 1535 1535 1534 1533 1533 1532 1531
1513 1516 1518 1521 1523 1524 1526 1527 1528 1529 1530 1531 1532 1533 1533 1533 1534 1534 1534 1535 1535 1535 1536 1536 1536 1536 1536 1536 1536 1536 1536 1536 1536 1536 1535 1535 1535 1535 1534 1533 1533 1532 1532
1512 1515 1517 1520 1522 1524 1525 1527 1528 1529 1530 1531 1532 1532 1533 1533 1534 1534 1535 1535 1535 1536 1536 1536 1536 1536 1537 1537 1537 1537 1537 1537 1536 1536 1536 1535 1535 1535 1534 1534 1533 1532 1532
1511 1514 1516 1519 1521 1523 1524 1526 1527 1528 1529 1530 1531 1532 1533 1533 1534 1534 1535 1535 1536 1536 1536 1536 1537 1537 1537 1537 1537 1537 1537 1537 1537 1536 1536 1536 1535 1535 1534 1533 1533 1532 1531
1511 1513 1515 1518 1520 1522 1523 1525 1526 1527 1528 1530 1531 1532 1532 1533 1533 1534 1535 1535 1536 1536 1536 1537 1537 1537 1537 1537 1538 1538 1537 1537 1537 1537 1536 1536 1536 1535 1534 1533 1533 1532 1531
1510 1512 1514 1516 1518 1520 1522 1524 1525 1527 1528 1529 1530 1531 1532 1532 1533 1534 1535 1535 1536 1536 1536 1537 1537 1537 1538 1538 1538 1538 1538 1537 1537 1537 1536 1536 1536 1535 1534 1533 1532 1532 1531
1508 1510 1512 1514 1517 1519 1521 1522 1524 1525 1527 1528 1529 1530 1531 1532 1533 1534 1534 1535 1536 1536 1536 1537 1537 1537 1538 1538 1538 1538 1538 1538 1537 1537 1536 1536 1535 1535 1534 1533 1532 1531 1531
1504 1507 1510 1512 1514 1517 1519 1521 1522 1524 1525 1526 1528 1529 1530 1531 1532 1533 1534 1534 1535 1536 1536 1537 1537 1537 1537 1537 1537 1537 1537 1537 1537 1537 1536 1536 1535 1534 1534 1533 1532 1531 1530
1500 1503 1506 1509 1512 1514 1516 1518 1520 1522 1523 1525 1526 1527 1529 1530 1531 1532 1533 1534 1534 1535 1535 1536 1536 1537 1537 1537 1537 1537 1537 1537 1536 1536 1536 1535 1535 1534 1533 1532 1531 1530 1529
1497 1500 1503 1506 1509 1511 1513 1516 1518 1519 1521 1522 1524 1526 1527 1528 1529 1531 1532 1533 1533 1534 1535 1535 1536 1536 1536 1536 1536 1536 1536 1536 1536 1535 1535 1535 1534 1533 1532 1531 1531 1529 1528
1494 1496 1500 1502 1505 1508 1510 1512 1515 1516 1518 1520 1522 1523 1525 1526 1528 1529 1530 1532 1532 1533 1534 1534 1534 1535 1535 1535 1535 1535 1535 1535 1535 1534 1534 1533 1533 1532 1531 1530 1529 1528 1527
1490 1492 1495 1498 1501 1504 1506 1508 1511 1513 1516 1518 1519 1521 1522 1524 1526 1527 1528 1530 1531 1532 1532 1533 1533 1533 1534 1534 1534 1534 1534 1533 1533 1533 1532 1532 1531 1531 1530 1529 1528 1527 1526
1485 1488 1491 1494 1497 1499 1502 1505 1508 1510 1512 1514 1516 1518 1520 1521 1523 1525 1526 1527 1529 1530 1530 1531 1531 1532 1532 1532 1532 1532 1532 1532 1531 1531 1531 1530 1529 1529 1528 1527 1526 1525 1524
1480 1483 1486 1489 1492 1495 1498 1501 1504 1506 1509 1511 1513 1515 1517 1518 1520 1522 1523 1525 1526 1527 1528 1529 1529 1530 1530 1530 1530 1530 1530 1530 1529 1529 1528 1528 1527 1527 1526 1525 1524 1523 1522
1475 1478 1481 1484 1486 1490 1493 1497 1500 1502 1505 1507 1509 1511 1513 1515 1517 1519 1520 1522 1523 1524 1525 1526 1527 1527 1527 1528 1528 1528 1528 1527 1527 1526 1525 1525 1524 1524 1523 1522 1521 1520 1519
1469 1472 1475 1478 1481 1485 1489 1493 1496 1498 1500 1503 1505 1507 1509 1511 1513 1515 1517 1518 1520 1521 1522 1523 1524 1524 1525 1525 1525 1525 1524 1524 1523 1523 1522 1522 1521 1520 1520 1519 1518 1517 1516
1463 1466 1469 1472 1476 1480 1483 1486 1489 1491 1494 1497 1500 1502 1505 1507 1509 1511 1512 1514 1516 1517 1518 1519 1520 1521 1521 1522 1522 1521 1521 1520 1519 1519 1518 1518 1517 1517 1516 1515 1514 1513 1512
1456 1459 1463 1466 1469 1473 1476 1479 1483 1486 1489 1492 1495 1498 1500 1502 1504 1506 1508 1509 1511 1513 1514 1515 1516 1517 1517 1518 1518 1518 1516 1516 1514 1514 1514 1514 1514 1513 1512 1511 1510 1509 1508
1449 1452 1455 1459 1463 1466 1470 1475 1479 1482 1485 1487 1489 1491 1494 1497 1499 1501 1503 1505 1506 1508 1509 1510 1512 1512 1513 1514 1514 1515 1513 1511 1510 1510 1509 1509 1509 1509 1508 1507 1506 1505 1503
1442 1446 1449 1453 1456 1460 1465 1468 1470 1473 1475 1478 1482 1485 1489 1492 1494 1496 1498 1500 1501 1503 1504 1506 1507 1508 1509 1509 1509 1510 1510 1509 1508 1505 1505 1505 1504 1504 1503 1502 1501 1500 1498
1436 1439 1443 1446 1450 1454 1458 1461 1464 1467 1470 1474 1477 1480 1483 1486 1488 1490 1492 1494 1496 1497 1499 1501 1502 1503 1503 1504 1504 1504 1504 1504 1504 1502 1499 1499 1499 1498 1497 1496 1495 1494 1492
1430 1433 1436 1440 1443 1447 1451 1454 1457 1460 1464 1467 1470 1474 1477 1480 1482 1484 1486 1488 1490 1491 1493 1495 1496 1497 1498 1498 1499 1499 1499 1499 1498 1497 1495 1493 1492 1492 1491 1490 1489 1488 1487